Date String (YYYY-MM-DD hh:mm:ss) UTC,Instrument flags,Ambient pressure (hPa),Sample flow (lpm),Bypass flow (lpm),Sample temperature (°C),Ambient temperature (°C),ASC tube jacket temperature (°C),LED temperature (°C),Box temperature (°C),Sample RH (%),Span deviation,Mass concentration (μg/m³),Mass concentration (μg/m³),Mass concentration (μg/m³)
DateTimeUTC,F1_M11,P_M11,Q1_M11,Q2_M11,T1_M11,T2_M11,T3_M11,T4_M11,T5_M11,U1_M11,ZSPAN_M11,X0_M11,X2_M11,X1_M11
2021-09-20 15:00:00,,0828.5,4.99,0.00,30.2,29.4,00.0,39.2,31.9,15.0,0000.0,0012.51,0003.74,0002.06
2021-09-20 15:01:00,,0828.4,5.01,0.00,30.2,29.4,00.0,39.2,31.9,15.0,0000.0,0012.60,0003.73,0002.04
2021-09-20 15:02:00,,0828.3,4.99,0.00,30.2,29.4,00.0,39.2,31.9,14.9,0000.0,0013.27,0003.71,0002.03
2021-09-20 15:03:00,,0828.3,5.01,0.00,30.2,29.4,00.0,39.2,32.0,14.8,0000.0,0013.67,0003.72,0002.04
2021-09-20 15:04:00,,0828.4,4.98,0.00,30.2,29.4,00.0,39.2,32.0,14.9,0000.0,0013.87,0003.73,0002.03
2021-09-20 15:05:00,,0828.4,5.01,0.00,30.2,29.5,00.0,39.3,32.0,14.9,0000.0,0013.76,0003.75,0002.06
2021-09-20 15:06:00,,0828.4,4.99,0.00,30.2,29.5,00.0,39.3,32.0,15.1,0000.0,0013.56,0003.73,0002.08
2021-09-20 15:07:00,,0828.4,5.00,0.00,30.2,29.5,00.0,39.3,32.0,15.2,0000.0,0014.35,0003.77,0002.11
2021-09-20 15:08:00,,0828.5,5.00,0.00,30.3,29.5,00.0,39.3,32.0,15.1,0000.0,0014.14,0003.81,0002.13
2021-09-20 15:09:00,,0828.4,5.01,0.00,30.3,29.5,00.0,39.3,32.0,15.0,0000.0,0015.20,0003.84,0002.13
2021-09-20 15:10:00,,0828.5,4.99,0.00,30.3,29.5,00.0,39.3,32.1,15.1,0000.0,0016.11,0003.88,0002.13
2021-09-20 15:11:00,,0828.5,5.01,0.00,30.3,29.5,00.0,39.3,32.1,14.9,0000.0,0017.05,0003.88,0002.12
2021-09-20 15:12:00,,0828.4,4.98,0.00,30.3,29.6,00.0,39.4,32.1,14.8,0000.0,0017.86,0003.94,0002.15
2021-09-20 15:13:00,,0828.5,5.00,0.00,30.3,29.6,00.0,39.4,32.1,14.6,0000.0,0018.28,0004.00,0002.17
2021-09-20 15:14:00,,0828.5,4.99,0.00,30.4,29.6,00.0,39.4,32.1,14.5,0000.0,0017.47,0004.03,0002.17
2021-09-20 15:15:00,,0828.6,4.99,0.00,30.4,29.6,00.0,39.4,32.1,14.4,0000.0,0017.29,0004.10,0002.17
2021-09-20 15:16:00,,0828.6,5.01,0.00,30.4,29.6,00.0,39.4,32.1,14.2,0000.0,0018.36,0004.13,0002.18
2021-09-20 15:17:00,,0828.8,5.00,0.00,30.4,29.6,00.0,39.4,32.1,14.5,0000.0,0019.03,0004.18,0002.20
2021-09-20 15:18:00,,0828.7,5.00,0.00,30.4,29.6,00.0,39.4,32.1,14.6,0000.0,0018.71,0004.18,0002.20
2021-09-20 15:19:00,,0828.6,5.00,0.00,30.4,29.6,00.0,39.4,32.1,14.6,0000.0,0019.17,0004.20,0002.20
2021-09-20 15:20:00,,0828.9,5.02,0.00,30.4,29.6,00.0,39.5,32.2,14.6,0000.0,0018.16,0004.20,0002.21
2021-09-20 15:21:00,,0829.1,5.00,0.00,30.4,29.7,00.0,39.5,32.2,14.5,0000.0,0017.47,0004.15,0002.21
2021-09-20 15:22:00,,0828.8,4.99,0.00,30.4,29.7,00.0,39.5,32.2,14.5,0000.0,0016.79,0004.18,0002.22
2021-09-20 15:23:00,,0829.0,5.01,0.00,30.5,29.7,00.0,39.5,32.2,14.5,0000.0,0015.89,0004.16,0002.22
2021-09-20 15:24:00,,0828.8,4.98,0.00,30.5,29.7,00.0,39.5,32.3,14.2,0000.0,0015.17,0004.17,0002.20
2021-09-20 15:25:00,,0828.9,5.01,0.00,30.5,29.7,00.0,39.5,32.2,14.3,0000.0,0015.04,0004.18,0002.21
2021-09-20 15:26:00,,0829.2,4.98,0.00,30.5,29.7,00.0,39.5,32.2,14.3,0000.0,0015.12,0004.14,0002.22
2021-09-20 15:27:00,,0828.8,5.00,0.00,30.5,29.7,00.0,39.6,32.2,14.2,0000.0,0014.23,0004.10,0002.21
2021-09-20 15:28:00,,0829.0,5.00,0.00,30.5,29.7,00.0,39.6,32.2,14.2,0000.0,0013.28,0004.08,0002.18
2021-09-20 15:29:00,,0828.9,4.99,0.00,30.5,29.7,00.0,39.6,32.2,14.1,0000.0,0012.87,0004.07,0002.18
2021-09-20 15:30:00,,0829.0,5.01,0.00,30.5,29.7,00.0,39.6,32.2,14.1,0000.0,0012.43,0004.04,0002.18
2021-09-20 15:31:00,,0828.6,5.00,0.00,30.5,29.7,00.0,39.6,32.2,14.2,0000.0,0012.45,0004.05,0002.19
2021-09-20 15:32:00,,0829.0,5.00,0.00,30.5,29.7,00.0,39.6,32.2,14.1,0000.0,0012.16,0003.99,0002.19
2021-09-20 15:33:00,,0829.0,5.00,0.00,30.5,29.6,00.0,39.6,32.2,13.8,0000.0,0011.85,0003.90,0002.18
2021-09-20 15:34:00,,0828.8,5.00,0.00,30.5,29.7,00.0,39.6,32.2,13.7,0000.0,0011.93,0003.83,0002.15
2021-09-20 15:35:00,,0829.0,5.01,0.00,30.5,29.7,00.0,39.6,32.2,13.6,0000.0,0011.70,0003.75,0002.13
2021-09-20 15:36:00,,0828.7,5.00,0.00,30.5,29.7,00.0,39.6,32.2,13.7,0000.0,0011.53,0003.72,0002.09
2021-09-20 15:37:00,,0829.1,5.00,0.00,30.5,29.7,00.0,39.6,32.2,13.5,0000.0,0011.47,0003.70,0002.08
2021-09-20 15:38:00,,0829.2,5.01,0.00,30.5,29.7,00.0,39.6,32.3,13.4,0000.0,0011.32,0003.70,0002.07
2021-09-20 15:39:00,,0829.1,4.99,0.00,30.5,29.8,00.0,39.6,32.3,13.4,0000.0,0011.12,0003.66,0002.05
2021-09-20 15:40:00,,0829.1,5.00,0.00,30.5,29.8,00.0,39.6,32.3,13.3,0000.0,0010.63,0003.57,0002.01
2021-09-20 15:41:00,,0828.8,5.01,0.00,30.6,29.8,00.0,39.6,32.3,13.3,0000.0,0010.11,0003.51,0001.99
2021-09-20 15:42:00,,0828.8,5.00,0.00,30.6,29.8,00.0,39.6,32.3,13.3,0000.0,0009.74,0003.42,0001.97
2021-09-20 15:43:00,,0828.9,5.00,0.00,30.6,29.8,00.0,39.7,32.3,13.2,0000.0,0010.51,0003.38,0001.95
2021-09-20 15:44:00,,0828.8,5.00,0.00,30.6,29.9,00.0,39.7,32.3,13.1,0000.0,0010.46,0003.38,0001.95
2021-09-20 15:45:00,,0828.8,5.02,0.00,30.6,29.9,00.0,39.7,32.3,13.4,0000.0,0010.52,0003.40,0001.96
2021-09-20 15:46:00,,0828.8,4.99,0.00,30.6,29.9,00.0,39.7,32.4,13.3,0000.0,0010.69,0003.40,0001.99
2021-09-20 15:47:00,,0828.9,5.00,0.00,30.6,29.9,00.0,39.7,32.4,13.0,0000.0,0010.76,0003.39,0002.02
2021-09-20 15:48:00,,0829.0,5.00,0.00,30.7,29.9,00.0,39.7,32.4,12.9,0000.0,0010.70,0003.36,0002.04
2021-09-20 15:49:00,,0828.9,4.99,0.00,30.7,30.0,00.0,39.7,32.4,12.7,0000.0,0010.63,0003.34,0002.07
2021-09-20 15:50:00,,0829.0,5.01,0.00,30.7,30.0,00.0,39.8,32.4,12.8,0000.0,0010.75,0003.35,0002.10
2021-09-20 15:51:00,,0828.9,4.99,0.00,30.7,30.0,00.0,39.8,32.5,12.8,0000.0,0010.91,0003.38,0002.13
2021-09-20 15:52:00,,0828.7,4.99,0.00,30.7,30.0,00.0,39.8,32.5,12.6,0000.0,0011.30,0003.40,0002.15
2021-09-20 15:53:00,,0829.1,5.00,0.00,30.8,30.0,00.0,39.8,32.5,12.7,0000.0,0011.78,0003.45,0002.17
2021-09-20 15:54:00,,0829.0,5.00,0.00,30.8,30.0,00.0,39.8,32.5,12.8,0000.0,0010.75,0003.53,0002.21
2021-09-20 15:55:00,,0829.0,4.99,0.00,30.8,30.0,00.0,39.8,32.5,12.9,0000.0,0010.69,0003.53,0002.23
2021-09-20 15:56:00,,0829.0,5.00,0.00,30.8,30.0,00.0,39.8,32.5,12.4,0000.0,0010.40,0003.52,0002.24
2021-09-20 15:57:00,,0828.9,5.00,0.00,30.8,30.0,00.0,39.9,32.5,12.4,0000.0,0010.13,0003.55,0002.24
2021-09-20 15:58:00,,0828.9,5.01,0.00,30.8,30.0,00.0,39.9,32.5,12.6,0000.0,0010.00,0003.56,0002.22
2021-09-20 15:59:00,,0829.0,4.99,0.00,30.8,30.0,00.0,39.9,32.4,12.3,0000.0,0009.84,0003.58,0002.22
